Location: Middelsbur
(53.6609°N, 7.5020°E)
Time: 23:20:57
(UTC+00:00)

Cosmos 1943 Rocket - Pass Details

Date: 06 July 2020
Orbit: 811 x 845 km, 71.0° (Epoch: 14 August)

Event Time Altitude Azimuth Distance (km) Brightness Sun altitude
Rises 22:32:11 0° 327° (NNW) 3,417 6.9 -12.6°
Reaches altitude 10° 22:34:41 10° 331° (NNW) 2,479 6.0 -12.7°
Maximum altitude 22:40:20 64° 53° (NE) 933 2.5 -12.9°
Enters shadow 22:45:30 12° 135° (SE) 2,288 4.0 -13.0°
